GFSWCAN_850_temp_057.txt.gz
Temp
11 11 10 11 11 11 11 11 11 11 11 11 10 9 8 8 7 6 8 7 6 11 10 9 8 8 7 7 8 9 9 7 5 5 6 6 7 5 5 9 9 9 8 8 10 9 10 10 12 11 8 6 5 9
10 11 11 11 11 11 11 11 11 11 11 11 11 9 8 8 7 7 8 7 7 7 10 9 9 7 7 7 7 7 7 8 5 4 4 4 5 5 5 7 11 10 9 10 12 12 10 7 7 7 6 4 4 8
11 11 11 11 11 11 11 11 10 10 11 11 11 10 9 9 8 8 8 7 7 9 10 9 10 9 9 8 7 5 8 7 5 5 4 3 4 3 6 5 5 7 5 6 7 9 6 5 5 4 6 4 5 7
10 11 11 11 11 11 11 10 10 10 10 10 10 10 10 10 9 8 8 8 8 9 11 10 9 9 8 9 7 7 7 7 6 6 4 4 4 3 4 4 4 4 4 4 4 4 3 4 4 4 4 5 7 7
10 11 11 11 11 11 11 10 10 10 10 9 9 9 9 9 9 8 6 8 7 8 11 11 10 9 8 9 9 8 9 8 8 7 7 5 3 3 4 4 4 4 3 4 4 3 3 3 3 3 4 6 6 6
10 11 11 11 11 11 11 11 10 10 10 9 9 9 9 8 8 6 7 7 7 6 8 12 11 9 9 8 8 9 9 10 10 12 11 8 6 4 5 4 4 6 4 3 3 2 3 3 3 3 4 5 5 6
10 11 11 11 11 11 11 11 10 10 10 9 8 8 8 8 7 7 8 7 7 6 7 11 12 11 9 9 10 10 10 10 11 11 8 9 9 7 6 4 6 6 6 3 2 2 3 3 2 2 3 4 4 5
10 11 11 11 11 11 11 11 11 10 10 9 8 8 8 7 7 7 7 7 6 6 8 12 14 12 10 11 10 9 10 9 10 11 11 10 9 7 5 8 7 6 7 7 6 3 2 3 2 2 2 3 3 3
10 11 10 11 11 11 12 11 11 11 10 9 8 7 7 6 7 7 7 6 5 6 9 12 14 13 10 11 10 10 9 9 11 10 11 9 6 5 8 9 8 8 7 8 7 6 5 4 3 2 2 2 2 3
10 11 11 11 11 12 12 11 11 10 10 9 8 7 8 7 7 7 6 6 6 6 7 11 14 14 13 12 11 11 11 12 10 11 11 9 7 10 10 9 8 8 8 7 7 6 6 6 5 3 2 2 2 2
10 11 11 11 12 12 12 11 11 11 10 9 11 12 8 8 6 7 10 11 14 14 13 14 15 16 15 14 12 13 13 13 10 11 13 11 10 10 10 10 9 8 8 7 7 7 6 6 6 5 4 2 2 2
10 11 11 11 12 12 12 11 11 11 10 11 10 10 9 7 9 13 16 16 15 14 17 16 16 15 14 12 12 12 12 12 12 13 13 8 9 10 10 10 10 9 8 7 7 7 6 6 6 5 5 4 3 3
10 11 11 12 13 13 12 11 11 11 11 9 10 10 12 13 11 15 13 16 15 17 18 17 17 16 12 10 11 13 12 10 12 11 8 11 10 10 10 10 10 10 9 8 7 7 7 6 6 6 5 5 4 4
10 11 12 12 13 13 12 11 11 11 11 12 14 9 15 16 16 18 18 18 17 17 15 15 13 15 12 11 12 12 12 14 12 9 9 11 10 10 10 10 10 10 10 9 8 7 7 7 7 7 7 6 5 5
11 11 12 12 12 12 11 12 11 11 10 14 15 12 17 18 18 17 16 14 15 15 14 13 11 11 12 9 12 11 12 11 11 9 10 10 10 10 8 7 9 8 9 9 9 8 7 7 8 7 7 7 6 6
11 12 12 12 12 12 12 12 12 10 11 13 14 17 18 18 18 16 17 16 15 15 14 11 12 9 7 8 9 8 9 9 7 9 11 10 9 9 9 9 9 9 8 9 9 9 8 8 7 7 7 7 7 6
11 10 11 11 12 12 12 12 10 11 14 15 17 18 17 15 16 14 15 15 14 14 13 11 9 8 11 8 7 9 7 8 9 9 9 8 8 8 8 9 9 9 8 8 7 8 8 8 8 7 7 7 7 7
10 10 12 12 12 12 12 11 12 14 15 16 17 18 17 16 15 15 14 13 13 14 12 10 9 10 8 9 10 10 9 9 9 10 10 9 8 8 8 8 8 9 8 8 8 8 7 8 8 8 8 8 8 8
11 11 12 12 12 11 12 12 12 16 17 17 17 17 16 15 14 14 14 13 12 12 10 9 8 8 9 10 10 9 10 9 10 9 9 9 8 8 8 8 8 9 9 8 7 7 6 7 8 8 8 8 8 7
12 11 12 12 11 11 14 15 13 15 17 18 17 17 16 15 15 14 14 14 13 14 13 12 10 10 10 10 10 10 9 9 9 9 7 8 8 9 9 8 9 8 9 8 8 7 7 6 6 7 7 6 7 7
12 11 12 12 12 11 14 16 16 17 17 17 17 17 16 15 16 15 15 14 15 14 13 12 12 11 9 9 8 7 7 8 8 9 8 7 9 9 9 9 9 9 9 7 7 7 7 6 6 6 7 7 6 6
11 11 10 11 11 13 14 15 16 16 16 17 18 17 17 17 16 15 14 14 13 13 12 11 9 8 8 8 8 8 7 7 7 7 6 7 8 8 8 9 8 8 7 8 6 7 7 5 5 6 6 6 5 6
11 11 11 12 13 14 14 15 16 17 18 18 18 18 17 17 15 14 13 13 12 11 11 10 8 8 9 9 9 8 8 7 7 7 7 8 8 8 8 7 8 7 7 7 7 7 6 5 5 5 5 5 5 4
11 11 13 15 14 14 16 17 17 17 18 18 18 18 17 15 15 16 14 14 13 12 12 10 10 10 11 10 11 10 9 9 6 6 7 6 6 7 6 6 6 5 5 6 5 4 5 5 5 4 4 4 5 4
11 12 12 12 15 16 18 18 18 18 18 18 18 18 17 15 16 15 15 15 14 12 10 9 11 11 11 11 10 10 9 9 9 7 7 6 5 3 4 4 5 5 5 5 4 4 6 5 4 4 3 4 4 3
8 14 12 17 18 18 19 18 17 18 19 18 18 17 16 17 16 15 15 13 13 12 11 10 11 11 10 9 9 8 8 8 8 8 6 6 5 6 5 3 4 4 4 4 5 4 2 3 5 4 3 3 3 3
12 17 16 16 17 17 18 18 17 18 18 18 19 17 17 16 15 15 14 12 12 11 10 10 10 9 9 8 8 7 7 7 7 7 5 5 4 5 4 3 3 4 4 4 4 5 5 4 2 4 3 4 3 3
16 17 18 18 17 18 18 18 18 18 19 18 17 17 17 17 16 14 13 11 10 10 10 9 8 8 7 7 7 8 7 6 6 6 6 5 4 4 4 4 3 3 3 3 3 4 2 3 4 3 3 3 3 2
16 17 17 18 18 18 18 18 19 19 18 18 18 18 17 14 13 13 12 11 11 11 10 10 9 9 8 7 6 6 7 7 7 7 6 5 5 4 3 3 3 4 4 3 2 2 2 2 3 3 3 2 3 2
17 18 18 19 19 19 19 19 19 17 17 17 16 14 14 13 12 11 11 11 11 11 10 10 9 9 8 8 6 6 5 6 6 7 7 6 5 4 4 4 4 4 4 3 3 3 2 2 2 3 3 3 2 2
18 18 18 19 19 19 19 17 16 16 16 16 15 16 16 13 11 11 11 11 11 10 10 10 9 8 8 8 7 6 5 4 4 4 5 5 5 5 3 3 3 4 4 4 3 3 3 3 3 3 2 2 2 2
18 18 19 20 19 18 16 17 18 17 17 16 16 15 14 13 13 11 11 10 10 11 9 9 9 7 6 5 5 4 4 4 4 4 4 4 4 4 4 4 4 4 4 4 3 3 3 3 3 2 2 2 1 1
19 19 19 19 19 18 18 18 18 18 17 18 17 15 15 14 14 12 10 10 11 11 10 9 7 6 5 5 4 3 3 2 3 2 2 2 2 3 3 4 3 3 3 4 3 3 3 3 3 2 2 2 2 1

GFSWCAN_850_temp_060.txt.gz
Temp
10 11 11 11 11 11 11 11 11 11 12 11 12 12 11 10 9 9 9 10 9 11 12 12 11 11 10 10 10 11 10 10 9 7 7 7 7 6 5 9 10 10 9 8 10 10 9 12 13 12 11 10 10 9
10 11 11 11 11 11 11 11 11 11 11 11 11 11 11 10 9 9 9 9 9 10 12 11 11 10 10 9 10 11 9 9 8 6 5 5 5 5 5 6 8 8 6 8 9 11 9 8 8 9 8 8 9 8
10 11 11 11 11 11 11 11 10 11 11 11 11 11 10 10 10 9 9 9 10 10 11 10 10 11 11 11 10 10 9 9 7 7 6 5 5 4 5 5 5 8 7 8 6 10 5 7 7 6 6 6 6 6
10 11 11 11 11 11 11 11 10 10 10 10 10 10 10 10 10 9 8 9 9 9 11 12 11 11 11 11 10 10 10 8 7 7 8 6 5 3 5 4 5 6 6 5 5 5 4 5 4 3 4 4 5 6
10 11 11 11 11 11 11 11 10 10 10 10 10 9 9 9 9 9 7 8 8 9 11 12 13 12 11 11 11 11 10 9 9 8 8 7 5 5 5 3 4 6 4 4 4 3 3 3 3 3 3 3 5 5
10 11 11 11 11 11 11 11 11 10 10 10 9 9 9 8 8 7 8 8 8 7 8 13 13 12 12 11 11 11 10 10 10 11 11 11 8 7 6 5 6 6 5 3 2 1 2 2 2 2 2 3 4 5
10 10 11 11 11 11 11 11 11 10 10 10 9 9 8 8 8 7 9 8 8 7 7 12 14 13 12 12 10 10 10 11 11 10 10 10 9 8 8 5 7 7 7 4 3 3 3 3 2 2 2 2 3 4
10 10 10 11 11 11 11 11 11 11 10 10 9 8 8 8 8 8 8 8 7 6 8 13 15 13 12 12 12 12 11 10 11 11 11 12 11 8 5 8 6 7 8 7 6 4 3 3 2 2 2 2 2 3
10 10 10 11 11 11 11 11 11 11 10 10 9 8 7 7 7 8 8 7 6 7 9 14 15 13 13 13 13 11 12 10 11 11 12 10 6 4 7 10 8 7 8 9 8 7 6 4 3 3 2 1 2 2
10 10 10 11 11 11 11 11 11 11 10 10 9 7 8 8 9 8 7 6 6 7 8 12 15 16 15 12 12 12 11 12 11 12 13 9 7 9 9 10 9 9 8 8 8 7 7 7 6 3 3 2 1 2
10 10 11 11 11 11 11 11 11 11 10 10 10 10 10 10 8 8 11 12 13 13 13 14 16 16 16 13 13 14 13 13 10 13 13 11 10 11 11 10 9 8 7 7 7 7 6 6 6 6 4 4 2 2
10 10 11 11 12 12 12 12 11 11 10 11 11 11 11 10 11 13 15 16 17 15 17 15 13 14 13 12 13 13 12 12 11 13 13 9 12 11 11 11 10 9 9 7 7 7 7 7 6 6 6 5 4 3
10 11 11 12 13 13 13 12 11 11 11 10 10 11 12 14 10 15 13 13 11 9 14 15 14 11 11 11 11 12 9 8 8 12 9 11 9 10 11 11 11 11 9 9 8 8 7 7 7 7 6 6 5 5
10 11 11 12 12 12 11 11 10 10 11 12 13 9 16 16 16 15 16 16 11 12 14 16 14 13 13 11 7 8 10 9 10 9 8 7 7 8 10 10 11 11 10 9 8 8 8 8 7 8 8 7 6 5
11 11 12 12 12 12 11 11 11 11 10 14 16 11 17 18 17 16 14 12 15 16 16 16 16 14 9 8 8 9 11 11 9 7 7 7 8 9 9 9 9 9 10 10 10 8 8 8 8 8 8 8 7 6
11 11 12 11 11 11 12 12 11 10 12 14 16 17 18 17 16 17 13 12 16 16 15 15 14 13 12 12 10 11 10 9 8 10 10 8 8 9 9 9 10 10 10 8 9 9 8 9 9 8 8 8 8 7
11 10 11 11 11 12 12 12 10 12 14 16 17 17 14 15 13 15 15 15 15 16 16 13 12 11 12 11 11 10 10 10 10 10 10 9 9 9 9 9 9 9 10 8 8 8 8 9 9 8 8 8 7 7
10 10 11 11 11 11 11 11 13 15 16 17 16 16 18 16 15 16 16 15 15 14 13 12 11 12 11 10 10 10 10 10 10 10 10 10 9 9 9 9 9 9 9 8 6 7 7 8 8 9 9 9 9 7
11 11 12 11 11 11 13 13 13 16 17 15 17 18 16 16 15 15 15 14 14 13 13 12 12 11 11 11 11 11 10 10 10 10 10 9 8 8 9 9 9 9 9 8 9 8 6 7 8 9 9 9 8 8
12 12 11 11 11 11 14 16 15 16 18 18 16 18 18 16 14 15 14 14 14 15 14 13 12 12 11 10 11 11 10 9 9 9 8 8 9 9 9 9 9 9 9 9 7 7 7 7 8 7 8 7 8 7
12 11 11 11 11 11 14 16 16 16 17 19 17 14 18 15 15 16 15 15 15 15 14 13 12 11 10 10 9 9 8 8 8 7 8 9 8 8 9 9 9 7 6 5 5 6 7 7 7 7 5 6 7 7
10 11 10 11 12 14 15 16 17 16 17 14 13 16 15 18 17 16 12 14 14 14 13 12 12 11 11 9 8 8 9 8 8 7 7 8 9 9 9 9 9 9 7 6 5 4 5 7 5 5 5 6 6 6
11 11 12 13 14 15 14 16 17 17 19 18 15 18 18 18 15 14 15 15 14 13 12 11 11 10 10 10 10 9 9 10 8 8 7 7 7 6 6 6 7 8 7 6 5 5 5 6 6 7 5 5 5 5
11 11 14 16 15 13 16 17 17 18 15 11 18 17 18 17 14 15 17 16 15 14 13 11 12 12 12 12 12 11 10 10 9 8 7 7 7 6 4 5 6 7 7 6 5 5 4 3 6 5 5 6 5 5
12 12 13 12 15 17 18 18 16 17 18 16 19 18 18 17 17 17 17 16 15 14 13 12 13 13 12 11 11 10 9 9 10 8 7 7 6 5 5 5 5 6 6 6 5 4 3 2 3 4 4 5 5 5
8 14 13 18 18 18 14 17 12 15 20 19 18 15 18 18 17 16 16 15 14 13 12 12 12 12 11 10 10 9 9 9 8 7 7 7 7 6 5 5 5 5 6 6 5 3 4 4 3 5 5 4 4 4
10 17 17 17 18 19 18 14 19 20 19 19 19 17 18 16 16 16 15 14 13 12 11 11 11 11 10 10 9 8 8 8 7 6 6 6 6 5 5 4 5 4 5 5 4 3 4 4 4 4 4 4 4 3
16 18 19 19 19 19 19 19 20 19 18 15 16 13 13 18 17 16 15 13 12 12 11 11 10 10 9 9 9 9 9 8 8 7 7 6 6 5 5 4 4 4 4 4 4 3 3 3 3 4 4 4 4 4
16 18 18 18 19 19 19 19 19 15 18 20 15 15 18 16 15 14 13 13 13 13 13 12 11 11 10 9 8 8 9 9 9 8 7 7 6 5 5 5 5 5 5 4 4 3 3 4 4 4 4 4 4 3
18 19 19 19 19 12 15 14 15 18 19 19 18 17 16 15 14 14 13 13 13 13 12 12 11 11 11 10 9 8 8 8 8 8 8 7 6 6 5 5 5 5 5 5 4 4 3 3 3 4 4 3 3 2
19 20 20 20 20 15 13 15 17 19 19 19 18 18 17 15 13 13 13 13 13 12 12 12 11 10 10 10 9 8 7 6 6 6 7 7 6 5 5 5 5 5 5 5 5 5 4 4 4 4 3 3 3 3
20 20 20 19 13 15 17 19 20 19 17 18 18 18 16 15 14 13 13 12 12 12 11 11 11 10 8 8 7 7 7 6 6 5 6 6 6 5 5 6 6 5 5 5 5 5 4 4 4 3 3 3 3 3
20 20 20 18 14 14 15 19 20 20 20 19 19 18 18 17 15 13 12 12 12 13 12 11 10 8 7 7 6 5 5 5 5 4 4 4 4 4 5 5 5 5 5 5 5 5 4 4 4 3 3 3 3 3

GFSWCAN_850_temp_063.txt.gz
Temp
10 11 11 11 11 11 11 11 11 11 11 12 12 11 11 10 10 10 9 10 10 11 12 12 12 11 10 10 10 11 10 9 8 6 7 6 6 5 5 7 7 7 6 7 8 7 8 7 11 9 8 8 8 8
10 10 11 11 11 11 11 11 11 11 11 12 12 11 11 10 10 10 9 9 10 10 11 11 11 11 10 10 10 10 9 10 8 6 5 4 4 5 4 5 7 7 5 5 6 6 5 5 6 6 5 5 6 5
10 10 11 11 11 11 11 11 11 11 11 11 11 11 10 10 10 10 9 9 9 10 11 12 11 11 11 11 11 11 10 9 8 8 6 5 3 4 4 5 5 7 6 6 5 7 4 4 4 4 4 4 4 4
10 10 11 11 11 11 11 11 11 11 10 10 10 10 10 10 10 10 9 9 8 9 10 12 12 12 12 12 11 11 10 9 8 8 7 7 5 4 4 4 4 6 6 4 4 6 4 4 3 3 3 3 3 3
10 10 10 11 11 11 11 11 11 11 10 10 10 10 9 9 9 9 9 8 8 9 9 10 11 12 12 11 11 11 10 9 8 8 7 6 6 5 5 3 3 6 5 3 4 4 2 2 2 3 2 2 3 3
10 10 10 11 11 11 11 11 11 11 11 10 10 10 9 9 9 8 9 8 8 8 8 10 13 13 13 12 11 11 11 11 10 9 9 9 9 7 5 4 6 7 6 5 4 4 3 3 3 2 2 2 2 3
10 10 10 11 11 11 11 11 11 11 11 10 10 9 9 9 8 8 9 8 8 7 8 10 13 13 13 12 11 11 11 10 10 11 10 11 8 7 6 5 5 7 7 6 5 4 3 3 3 2 2 2 2 2
10 10 10 11 11 11 11 11 11 11 11 10 10 9 9 8 8 9 9 9 8 7 7 10 13 13 13 12 12 11 11 11 11 11 11 10 9 7 4 6 6 7 7 6 5 5 5 4 3 2 2 2 2 1
10 10 10 11 11 11 11 11 11 11 11 10 10 9 8 8 7 9 8 8 7 7 8 12 12 13 13 13 12 12 12 9 10 10 10 10 4 3 5 8 7 7 8 8 7 7 6 6 4 3 2 3 2 1
10 10 11 11 11 11 11 11 11 11 11 10 9 8 9 8 9 9 7 7 6 6 7 9 12 12 12 10 10 9 11 11 9 10 11 5 5 8 10 10 9 8 8 8 8 7 7 6 6 5 4 3 3 2
10 10 11 11 11 11 11 11 11 11 11 10 9 9 10 10 9 8 9 9 9 10 10 10 10 10 12 10 8 9 9 10 9 10 10 9 8 9 10 10 9 9 8 7 7 7 7 7 6 6 5 5 4 3
10 10 11 11 11 12 12 12 12 11 11 10 10 10 10 10 9 11 12 11 9 10 8 8 10 12 12 11 8 9 7 8 8 7 8 7 9 10 10 10 9 9 9 8 7 7 7 7 7 6 6 5 5 4
10 10 11 11 12 12 13 12 12 11 11 10 10 11 12 12 10 13 11 11 9 9 10 9 10 13 11 11 8 7 8 8 6 8 6 6 5 7 9 10 10 10 9 8 6 7 7 7 7 7 6 6 5 5
10 11 11 11 11 11 11 11 11 10 11 10 13 7 13 14 14 10 9 10 11 10 11 9 11 12 11 8 7 8 9 9 8 8 7 6 6 6 7 8 10 9 8 9 8 7 8 8 8 8 7 6 6 6
10 11 11 12 11 11 11 11 11 10 11 12 14 9 16 12 11 11 12 11 13 14 12 12 15 13 11 9 9 10 10 8 7 6 7 7 7 7 8 9 9 10 10 8 8 6 8 7 8 8 8 7 7 6
11 11 11 11 11 11 11 12 12 10 10 13 14 16 17 14 13 12 13 15 15 15 15 15 13 13 11 10 11 10 10 8 8 8 9 8 8 8 9 9 10 10 10 9 8 7 6 8 8 8 8 8 7 7
10 10 10 10 10 11 12 11 10 10 12 15 16 16 16 15 14 14 15 15 15 14 14 13 12 11 12 11 9 9 8 9 10 10 10 9 9 9 9 9 9 9 9 8 8 8 8 8 8 8 8 8 7 7
9 10 11 10 10 11 11 11 11 14 15 15 15 16 15 16 16 15 15 15 14 14 13 12 12 12 11 10 9 9 10 10 10 10 10 9 8 8 9 9 9 9 9 9 8 8 8 8 8 8 7 7 7 5
10 10 11 11 10 10 10 11 12 14 16 17 16 14 13 15 15 15 15 14 13 13 13 13 12 10 11 11 10 10 10 9 9 9 9 8 9 8 7 7 8 8 9 9 8 7 8 8 8 8 8 7 7 7
11 12 12 11 11 11 12 14 14 15 17 16 14 13 12 13 15 14 15 15 15 14 14 13 11 12 11 10 10 10 9 8 8 8 8 8 8 6 8 8 8 8 8 8 8 3 7 7 7 8 7 7 5 6
11 11 11 11 11 11 12 14 16 16 16 14 14 14 14 14 15 15 15 15 15 14 13 13 12 12 11 11 10 9 10 9 8 8 8 7 7 7 7 6 5 5 6 5 5 4 5 5 5 6 6 6 6 6
10 10 10 11 11 13 13 14 15 16 14 13 14 13 13 16 15 14 14 14 15 14 13 12 12 11 11 10 10 10 10 9 8 8 7 7 7 7 6 6 7 3 5 5 4 4 4 5 5 5 5 6 5 5
11 11 11 12 12 15 15 15 16 16 12 12 13 15 17 16 15 14 15 15 14 13 12 12 12 12 11 11 10 10 10 9 8 8 7 6 6 6 5 5 6 6 6 4 4 4 4 4 5 4 5 5 5 5
11 11 13 14 15 13 16 17 16 12 13 11 13 16 16 16 15 14 16 15 14 13 12 13 12 12 12 11 10 9 9 9 8 7 7 6 5 5 5 5 6 6 5 4 4 3 4 5 5 5 5 5 5 5
11 12 12 12 15 16 17 15 11 15 15 15 15 13 16 16 16 17 16 15 15 14 13 13 13 12 11 11 10 9 9 9 8 7 7 7 5 5 5 5 6 5 5 5 4 4 4 5 5 5 5 5 5 4
7 13 13 16 17 17 17 14 13 14 16 17 15 13 14 16 16 16 16 15 14 13 12 12 12 12 11 10 9 9 8 8 7 7 7 6 6 5 5 5 5 4 4 3 3 3 3 4 4 4 4 4 4 4
9 15 16 16 17 17 12 12 12 12 15 16 13 12 12 14 16 16 15 14 13 12 11 11 11 11 10 10 9 8 8 7 7 6 6 6 6 5 5 5 4 4 4 4 4 4 4 4 4 4 4 4 4 3
14 16 17 18 18 19 14 16 15 14 17 16 14 14 14 17 16 15 14 13 12 12 11 11 10 10 9 9 9 9 8 8 7 7 6 6 5 5 5 4 4 4 4 4 4 4 4 4 4 4 4 4 3 3
15 16 17 18 18 18 14 16 13 14 15 15 14 16 16 16 15 14 13 13 13 12 12 11 11 10 10 9 9 9 9 9 9 8 8 6 6 5 5 5 5 4 5 4 4 4 4 4 4 4 4 3 3 3
16 17 18 19 18 13 13 15 14 15 15 16 16 16 16 15 15 14 13 13 13 13 13 12 12 12 11 10 9 8 8 8 8 8 8 7 6 6 5 5 5 5 5 5 4 4 4 4 4 3 3 3 3 3
18 18 19 19 13 16 17 16 16 13 14 15 14 17 15 14 14 14 13 13 13 13 12 12 12 11 11 10 9 8 7 6 7 7 7 7 6 6 6 5 5 5 5 5 5 5 4 4 4 4 3 3 3 3
19 19 20 18 15 14 14 13 14 15 13 12 13 13 15 15 14 13 13 13 13 13 13 12 11 10 9 9 9 8 7 6 6 6 6 6 6 5 5 6 6 5 5 5 5 5 4 4 4 4 3 3 3 3
20 20 20 16 14 15 13 15 14 17 14 12 13 15 16 16 15 13 13 13 13 13 12 12 11 10 9 7 7 7 6 6 6 6 6 6 5 5 5 5 5 5 5 5 5 5 5 4 4 4 3 3 3 3

GFSWCAN_850_temp_069.txt.gz
Temp
10 10 10 10 10 11 11 11 11 11 11 12 12 12 12 12 11 12 11 11 11 11 11 11 11 11 10 9 5 9 6 7 3 1 -0 -1 -1 -1 2 4 5 4 4 2 5 5 5 6 6 7 5 5 4 4
10 10 10 10 10 11 11 11 11 11 11 11 11 11 11 11 11 11 11 10 10 10 11 11 11 11 11 11 10 9 8 7 6 0 -1 -2 4 4 1 1 4 3 3 3 4 5 5 5 6 5 5 4 4 3
10 10 10 10 10 11 11 11 11 11 11 11 11 11 11 11 10 10 10 11 10 10 10 11 12 12 11 11 11 10 9 9 8 8 3 0 -1 -0 2 1 3 4 4 3 3 5 5 5 5 4 4 4 4 3
10 10 10 10 10 11 11 10 11 11 11 10 10 11 10 10 10 10 10 10 9 9 7 11 12 11 11 11 11 11 11 9 9 7 5 1 -0 3 -1 1 1 2 3 2 1 3 5 6 5 4 4 3 2 2
10 10 10 9 10 11 10 10 10 11 11 11 10 10 10 10 9 9 9 8 8 8 7 9 10 12 11 11 11 10 10 10 8 7 4 3 4 2 3 4 4 4 2 1 1 6 5 6 6 5 4 3 3 2
9 10 10 9 10 10 10 10 10 11 11 11 11 10 10 10 9 9 8 8 8 8 8 5 10 12 12 11 11 11 10 10 9 8 6 7 7 6 1 1 5 5 5 7 7 7 6 6 5 5 4 4 2 2
10 9 9 10 10 10 10 10 11 11 11 11 10 10 10 9 9 9 9 8 8 8 8 7 6 11 12 11 10 10 10 9 9 8 7 7 6 6 2 1 7 8 8 7 7 6 5 6 6 5 5 4 3 3
10 10 9 10 10 10 10 10 11 11 11 11 10 10 10 9 9 10 9 8 8 8 8 7 5 9 10 10 10 10 9 8 8 8 7 6 5 5 4 5 8 8 8 7 7 7 7 7 6 6 5 4 4 3
9 9 9 10 10 10 10 10 11 11 11 11 10 10 10 10 9 9 8 8 8 7 7 7 6 8 10 10 10 9 9 7 8 6 6 6 3 4 5 8 8 8 8 8 7 7 7 7 6 6 6 5 3 3
9 9 10 10 10 10 10 11 11 11 11 11 10 10 9 9 9 8 7 7 7 7 7 5 7 7 10 9 7 7 7 7 7 6 6 5 4 5 6 7 10 9 9 8 7 7 7 7 6 6 6 6 4 4
9 9 9 10 10 10 11 11 11 11 11 10 10 9 9 8 8 8 8 7 7 6 7 7 8 6 9 8 7 7 6 5 5 7 6 4 4 5 5 6 8 9 9 8 8 8 7 7 6 6 6 6 5 5
9 9 10 10 10 10 11 12 12 11 10 10 10 9 9 8 8 8 7 8 7 7 9 7 9 8 8 8 7 6 7 6 7 5 5 4 5 6 6 6 8 8 8 8 8 7 7 7 7 7 7 6 6 5
9 9 10 10 10 10 11 12 11 11 10 10 9 9 8 9 8 9 10 8 7 9 10 9 7 9 7 7 6 5 7 7 6 5 6 4 7 5 6 7 7 8 8 8 8 7 7 7 7 7 7 7 6 6
9 10 10 10 10 10 11 11 10 10 10 10 9 6 7 9 10 9 8 8 12 11 11 9 8 7 7 6 5 8 6 5 7 5 5 4 8 7 7 6 7 7 7 8 8 7 7 7 7 7 7 7 6 6
9 10 10 11 11 10 10 10 10 10 10 10 9 6 8 12 13 12 11 11 12 12 10 8 8 8 6 7 5 6 7 7 6 4 3 9 9 8 8 8 7 7 7 9 8 8 8 8 7 7 7 7 6 6
9 10 10 10 10 10 10 11 10 10 10 10 10 11 11 11 12 12 12 12 13 13 11 10 8 7 7 6 8 7 7 5 5 4 9 9 9 9 8 7 7 8 8 8 8 8 8 7 7 7 7 7 7 6
10 10 9 9 10 10 10 10 10 10 10 10 11 12 12 12 11 12 12 13 13 13 8 8 9 9 7 7 7 5 5 5 9 9 9 9 9 9 8 8 7 6 6 7 7 6 6 6 6 7 7 6 6 6
9 9 9 10 10 10 10 10 9 9 10 12 12 12 12 12 12 13 13 13 13 13 12 10 9 9 8 8 6 5 8 9 8 8 8 8 7 7 7 6 6 6 6 6 7 6 5 4 5 7 7 6 6 6
10 10 10 10 10 10 10 10 10 10 12 12 12 12 12 12 13 13 13 13 13 13 12 11 8 6 5 7 8 9 9 8 8 8 7 7 6 6 6 6 6 5 6 7 7 6 4 4 5 6 6 6 6 6
10 10 10 10 10 10 10 11 11 12 12 13 12 12 12 13 13 14 14 14 13 13 11 8 7 10 10 10 10 10 9 8 8 7 7 7 6 6 6 6 6 6 6 6 5 3 4 4 5 6 6 6 6 6
10 10 10 10 10 10 11 12 12 13 13 12 12 12 13 13 13 13 14 13 13 13 11 12 12 11 11 10 10 9 9 8 8 7 7 6 6 5 5 5 4 5 5 5 4 3 4 4 5 4 6 5 5 5
9 9 10 10 10 10 10 12 13 13 13 12 12 12 12 12 13 13 14 13 13 14 13 13 12 11 11 10 9 9 9 8 7 7 7 5 5 5 4 4 5 5 4 4 3 2 2 3 4 4 4 5 5 4
10 9 9 9 9 10 12 12 13 13 12 12 11 11 11 12 14 13 13 13 14 13 13 12 12 11 11 9 9 9 8 7 7 6 6 5 4 5 5 5 5 5 4 3 3 2 2 4 4 4 4 5 4 4
10 10 10 10 10 11 13 13 12 11 11 10 10 12 11 13 12 13 10 12 13 13 12 12 11 10 9 9 9 8 7 7 6 6 5 5 5 5 5 5 4 4 4 3 3 3 3 4 3 4 4 4 4 4
9 10 10 10 11 11 11 11 10 10 10 10 11 10 11 12 10 9 10 12 13 12 12 11 10 11 10 9 8 7 7 7 6 6 5 5 5 5 5 4 4 3 3 3 3 4 4 4 4 4 4 4 4 4
5 11 10 11 13 12 12 11 10 10 11 12 10 11 12 10 12 12 11 13 13 13 12 11 10 9 9 9 8 7 7 7 7 6 5 5 4 5 5 5 4 3 3 3 4 4 4 4 4 4 4 4 3 3
5 9 11 12 13 13 11 11 11 11 12 13 10 10 10 13 13 12 13 13 13 12 12 11 11 10 10 9 8 8 7 7 6 6 5 5 5 4 4 4 4 3 3 4 4 4 4 4 4 4 3 3 3 3
10 11 10 13 13 14 13 10 10 10 10 12 11 11 12 12 12 13 13 13 13 12 11 11 11 10 10 9 8 8 7 7 6 5 5 5 5 5 5 4 4 4 4 4 4 4 4 4 3 3 3 3 3 3
10 12 12 12 13 13 13 12 12 14 14 13 11 9 11 14 14 14 14 13 12 12 11 11 10 10 9 8 8 8 7 7 6 5 5 5 5 4 5 4 4 4 3 4 4 4 4 4 3 3 3 3 3 2
11 13 13 13 13 12 15 15 15 15 14 14 14 13 13 14 14 14 14 13 13 12 12 11 10 10 10 9 9 8 7 7 7 6 6 6 5 5 5 5 4 4 4 4 4 4 3 3 3 3 3 3 2 2
13 13 13 14 14 16 15 14 14 13 14 14 14 13 13 14 14 14 13 13 13 12 12 11 11 10 10 9 9 9 8 7 7 6 6 6 5 5 5 5 5 4 4 4 4 4 4 3 3 3 3 3 2 2
14 14 14 13 13 13 13 13 13 12 12 12 12 12 12 13 13 13 13 13 12 12 12 12 12 12 11 10 9 9 8 8 8 7 6 6 5 5 5 5 5 5 5 5 4 4 4 4 4 3 3 3 2 2
15 15 15 14 12 12 12 12 12 12 11 11 11 12 12 13 13 13 13 13 13 13 13 13 12 12 11 10 9 9 8 7 7 6 6 6 6 5 5 5 5 5 5 5 5 4 4 4 3 3 3 3 2 2

GFSWCAN_850_temp_072.txt.gz
Temp
9 9 9 10 9 10 10 11 11 11 11 11 11 11 11 11 12 12 11 11 11 11 11 11 11 10 9 8 5 7 6 6 3 0 -0 -0 -2 1 -0 3 5 3 1 2 3 4 5 6 7 8 5 5 5 5
9 9 10 9 9 10 10 11 11 11 11 11 11 11 11 11 11 11 11 10 10 10 11 11 10 11 11 11 10 8 8 6 6 -0 -1 -3 -1 1 0 0 3 2 3 2 3 4 5 6 6 6 5 4 4 3
9 10 10 9 10 10 11 11 11 11 11 10 11 11 11 11 11 11 11 10 10 10 10 10 11 11 11 10 10 10 8 8 7 7 2 -1 -0 -2 0 -1 3 3 3 3 3 4 4 5 5 5 4 3 3 3
10 10 9 9 9 10 10 11 11 11 11 10 10 10 10 10 10 10 10 9 9 9 7 11 11 11 11 11 11 10 11 9 8 7 4 0 -0 2 -2 0 0 2 2 2 1 3 4 5 5 5 5 4 4 3
9 10 9 9 9 10 10 10 11 11 11 10 10 10 10 10 10 10 9 8 8 9 7 9 10 11 11 11 11 10 10 10 8 6 4 3 3 2 1 2 2 3 1 1 2 6 6 6 6 5 5 4 4 4
9 9 9 9 9 10 10 10 11 11 11 10 10 10 10 10 9 9 8 8 8 8 8 5 9 10 10 10 10 10 10 10 9 8 6 6 6 5 1 3 4 5 6 7 8 8 7 6 6 5 5 5 4 4
9 9 9 9 9 10 10 11 11 11 11 10 10 10 10 9 9 9 9 8 8 8 8 7 6 10 10 11 10 9 9 9 9 8 7 7 6 5 1 2 7 8 9 7 6 7 6 7 7 6 6 5 5 4
9 9 9 9 9 10 10 11 11 11 11 11 10 10 10 10 9 9 9 9 8 8 8 6 5 9 10 10 9 8 8 7 7 7 6 5 3 4 3 5 8 7 8 7 6 7 7 7 7 6 6 5 5 5
9 9 9 9 10 10 10 10 11 11 11 11 10 10 10 9 9 8 7 8 8 8 7 6 5 8 9 9 8 7 7 6 7 6 6 5 2 3 4 5 5 6 6 9 7 7 6 7 7 7 6 6 5 5
9 9 8 9 10 10 10 10 11 10 10 10 10 10 9 9 8 8 7 7 7 7 7 5 6 7 9 8 7 6 6 6 7 6 6 4 4 5 5 5 6 5 6 7 7 6 6 7 7 7 6 6 6 5
8 8 10 10 10 10 10 11 11 10 10 10 10 9 9 8 8 7 7 7 6 7 6 7 7 6 8 7 7 7 6 5 6 6 6 5 5 5 6 5 5 6 6 6 8 8 8 7 7 7 6 6 6 6
8 9 9 9 10 10 11 12 11 11 10 10 10 9 9 8 8 8 7 8 7 8 8 7 8 7 7 7 7 6 7 6 6 5 6 4 3 6 6 5 5 6 7 7 7 7 7 7 7 7 6 7 6 6
9 9 9 9 10 10 11 11 11 10 10 10 9 9 8 8 6 9 10 8 7 9 9 9 7 7 7 7 5 5 8 7 5 6 6 4 7 7 6 6 6 7 7 7 7 7 8 7 7 7 7 7 7 6
9 9 9 10 10 10 10 10 10 10 10 10 9 5 7 8 8 9 8 8 11 11 10 8 7 7 6 6 4 7 5 5 6 5 4 3 9 8 7 7 7 7 7 7 7 7 7 7 7 7 7 7 7 7
9 9 10 10 11 10 10 10 10 10 10 9 9 6 7 11 11 11 11 11 11 11 10 7 7 7 5 6 4 5 6 6 4 4 3 9 9 8 8 8 8 7 7 8 8 8 9 8 8 7 7 6 7 7
9 9 10 10 10 10 10 10 10 10 10 9 9 9 11 9 11 12 11 11 12 12 10 9 6 6 7 5 7 7 6 5 5 4 9 8 8 8 8 8 8 7 7 7 7 8 8 7 7 6 6 6 7 7
9 9 9 9 9 10 10 10 10 10 9 9 10 11 11 11 11 12 12 12 12 12 7 7 9 9 5 6 7 4 5 4 8 8 8 8 7 7 7 7 6 6 6 6 6 6 6 6 7 6 5 6 7 6
9 9 9 9 9 10 10 9 9 8 9 10 10 12 11 12 12 12 13 13 12 12 11 9 8 8 7 7 6 5 8 9 8 8 8 7 7 7 6 6 6 5 5 5 5 4 5 5 6 5 4 5 5 6
9 9 9 9 9 9 9 9 9 9 11 11 12 12 12 12 13 12 12 12 12 12 12 10 8 6 5 7 8 9 9 9 8 8 7 7 6 6 6 6 5 5 5 5 5 5 4 4 4 4 4 5 5 5
10 10 10 10 9 10 9 10 9 10 11 12 12 12 12 13 13 13 13 12 12 12 10 8 7 10 10 11 10 10 10 9 8 7 7 6 6 6 5 5 5 5 4 3 3 3 3 3 3 4 5 4 4 5
10 9 9 9 9 10 10 10 10 11 12 12 12 12 12 11 12 13 13 12 11 12 10 12 12 12 11 11 10 9 9 8 8 7 7 6 5 5 5 4 4 4 4 4 3 3 2 2 2 2 2 2 3 4
9 8 9 9 9 9 10 11 12 12 11 12 11 11 11 11 12 12 12 12 12 14 13 13 13 12 11 11 10 9 9 8 7 6 6 5 5 5 5 4 4 4 3 3 3 2 2 3 2 2 3 4 4 4
9 9 9 9 9 9 11 11 11 12 10 11 10 10 10 11 12 12 12 12 13 13 13 13 12 11 11 10 9 9 8 7 7 6 6 5 5 5 4 4 4 3 3 3 3 3 3 3 4 4 4 4 4 4
9 9 9 9 9 8 11 11 11 11 10 9 9 11 10 11 11 11 10 12 13 13 12 12 12 11 10 9 9 8 8 7 6 6 5 5 5 5 5 4 4 3 3 3 3 3 3 3 4 4 4 4 4 4
8 9 9 9 10 9 10 10 9 9 9 9 10 10 10 11 10 9 10 12 12 12 12 11 11 11 10 9 8 8 7 7 6 5 5 4 5 5 4 4 4 3 3 3 4 4 4 4 4 4 4 3 3 3
4 9 9 10 11 10 10 10 9 9 9 11 10 11 10 9 11 11 10 13 12 12 12 11 11 10 10 9 8 8 7 7 6 6 5 5 4 4 4 4 4 3 3 4 4 4 4 4 4 4 3 3 3 3
4 8 10 11 11 11 11 11 10 10 11 11 10 9 9 12 12 12 13 13 13 13 13 12 11 11 10 9 8 7 7 7 6 6 5 5 4 4 4 4 3 3 3 4 4 3 4 4 3 3 3 3 3 2
9 10 9 11 11 12 12 10 10 10 10 12 11 10 12 12 12 14 14 13 13 13 12 11 10 10 9 9 8 7 7 6 6 6 5 5 5 4 4 3 3 3 3 4 3 3 3 3 3 3 3 3 3 2
9 10 10 10 11 12 12 11 11 13 13 12 10 9 11 13 14 14 14 13 13 13 12 11 10 9 9 8 8 7 7 7 6 6 6 5 5 4 4 4 4 3 3 3 4 4 4 4 3 3 3 3 3 2
10 11 11 11 10 10 15 15 14 14 14 13 13 13 13 14 14 14 13 13 12 12 12 12 11 10 10 10 9 8 8 7 7 7 7 6 6 5 4 4 4 4 4 4 4 4 3 3 3 3 3 2 2 2
11 11 11 12 12 15 15 15 14 13 13 12 12 13 13 13 14 14 13 13 13 12 12 11 11 11 10 10 10 9 9 8 7 7 6 6 5 5 5 5 4 4 4 4 4 3 3 3 3 3 3 3 2 2
11 12 12 11 12 13 13 13 12 12 12 12 12 12 12 12 13 13 13 13 12 12 12 12 12 12 12 11 10 10 9 8 8 7 6 6 6 5 5 5 5 5 4 4 4 4 4 4 3 3 3 3 3 2
12 12 12 13 12 11 12 12 12 11 10 10 11 11 11 12 12 12 12 13 12 13 12 12 12 12 12 11 10 9 9 8 8 7 7 6 6 5 5 5 5 5 5 5 5 4 4 4 4 3 3 3 2 2

GFSWCAN_850_temp_075.txt.gz
Temp
10 10 9 9 9 9 10 10 11 11 10 11 11 11 11 11 11 11 11 11 11 11 11 11 11 10 8 9 11 8 9 8 8 7 8 6 7 4 6 8 9 10 9 9 9 10 10 8 9 10 8 6 7 6
11 10 10 10 9 9 10 10 10 10 10 10 10 11 11 11 11 11 11 11 11 10 11 11 11 11 11 11 10 8 8 8 8 6 4 5 5 3 5 8 7 8 9 9 10 11 8 7 8 6 6 6 5 5
10 9 9 9 9 10 10 10 10 10 10 10 10 10 10 11 11 10 10 10 10 10 10 10 10 10 10 10 10 10 8 8 7 7 6 5 5 5 5 5 7 7 5 8 8 9 8 7 6 5 5 5 4 4
10 9 10 9 9 10 10 10 10 10 10 10 10 10 10 10 10 10 10 9 10 9 9 10 10 10 10 10 10 10 11 9 8 7 7 8 8 4 6 6 7 7 6 8 7 7 6 6 6 6 6 5 4 4
10 9 9 9 9 9 10 10 10 10 10 10 10 10 10 10 10 10 9 8 9 9 9 9 10 10 10 10 10 10 10 10 8 7 8 9 6 5 4 5 6 5 7 7 9 9 9 7 7 6 5 4 4 4
10 9 9 9 9 9 10 10 10 10 10 11 10 10 10 9 9 9 8 8 8 8 8 10 9 9 10 10 10 10 10 9 9 8 8 6 5 7 6 5 8 6 6 7 9 9 7 7 7 6 5 4 4 4
10 9 9 9 9 9 10 10 10 10 10 11 10 10 9 9 9 9 8 9 8 8 8 9 10 9 9 10 9 8 8 8 8 8 6 6 5 5 4 5 8 8 8 6 6 7 5 6 6 6 6 5 5 4
10 10 9 9 10 10 10 10 10 10 10 10 10 10 9 9 9 8 8 8 8 8 8 9 10 9 9 9 8 8 7 6 6 6 6 6 4 4 4 6 6 5 6 6 5 6 7 7 6 6 6 5 5 5
10 9 9 9 9 10 9 10 10 10 10 10 10 10 9 9 8 8 8 8 8 8 8 8 10 11 9 8 8 7 6 6 5 5 5 5 3 4 4 6 6 6 5 6 6 4 5 6 6 6 6 6 6 6
9 8 9 9 9 10 10 10 10 10 10 10 10 9 9 9 8 8 8 8 8 8 8 8 6 10 9 8 7 7 6 7 7 6 5 6 5 6 6 6 5 5 4 6 6 4 4 5 6 6 7 6 6 6
8 8 8 8 9 9 10 10 10 10 10 10 9 9 8 8 7 8 7 8 7 8 7 6 6 9 7 8 8 7 9 7 7 7 7 7 6 8 6 6 5 5 5 6 6 6 6 7 7 7 7 7 6 6
8 8 9 9 9 10 10 10 10 10 10 10 9 9 8 7 8 9 9 8 8 11 7 7 7 6 7 7 8 7 8 7 9 6 7 5 8 7 6 6 6 6 5 6 6 7 7 7 7 7 7 7 7 7
8 9 9 9 9 9 10 11 10 10 10 9 9 8 8 8 7 10 11 11 11 9 8 8 9 7 7 7 6 8 9 8 6 7 7 8 8 8 7 6 6 6 6 7 7 7 7 7 7 7 7 7 7 7
9 9 9 9 9 9 9 9 9 10 10 9 8 6 9 10 10 11 12 12 11 10 9 7 7 8 6 8 7 9 8 8 8 7 8 10 8 8 8 7 6 6 6 7 7 7 7 7 7 7 6 6 6 7
9 9 9 10 10 10 9 9 9 10 10 9 8 7 9 10 10 11 11 10 11 10 9 7 7 7 8 8 8 8 8 9 9 9 9 8 8 7 7 7 7 7 7 7 7 7 7 7 7 6 6 6 6 6
9 8 9 9 9 9 9 10 10 9 9 9 9 10 10 10 11 11 11 11 11 11 9 8 9 10 9 9 9 10 9 9 10 9 9 7 7 7 7 7 7 6 6 6 6 5 5 6 6 5 6 6 5 6
9 8 9 9 9 9 10 10 9 9 9 8 10 11 10 10 11 11 12 11 12 10 12 10 11 10 8 10 10 8 10 11 9 9 7 7 7 6 6 6 6 5 5 5 5 4 4 4 3 3 5 5 5 6
9 9 9 9 9 9 9 9 9 8 8 9 10 11 11 11 12 12 12 12 11 11 10 12 9 10 10 10 10 10 8 8 9 8 7 7 6 6 6 5 5 4 5 4 3 4 3 3 3 3 3 3 3 4
9 9 9 9 9 9 9 9 9 9 10 10 11 11 11 12 12 12 12 12 12 11 11 9 10 10 11 10 9 9 10 9 9 8 7 7 6 6 5 4 4 4 4 4 4 3 3 3 3 3 3 2 2 2
9 9 9 10 9 9 9 9 9 9 10 11 11 11 11 12 12 12 12 11 10 10 10 11 12 11 11 11 11 10 10 9 8 7 7 6 5 5 4 4 4 4 3 3 3 3 2 2 2 2 3 3 2 2
9 9 9 9 9 9 9 10 9 10 11 10 11 11 12 12 11 11 11 11 10 11 12 12 13 12 12 11 11 10 9 8 8 7 6 5 5 4 4 4 4 4 4 2 2 2 2 2 2 2 2 2 2 3
9 8 8 9 9 9 9 10 10 11 10 11 10 11 11 11 12 11 11 10 11 13 13 13 13 12 12 11 10 9 8 8 7 6 5 5 5 4 4 4 4 4 3 2 2 2 2 2 2 2 3 3 3 3
9 9 8 8 8 8 9 10 9 11 11 11 10 11 11 11 10 11 11 12 12 13 13 12 12 12 11 10 9 8 8 7 6 6 5 5 5 4 4 4 4 3 3 3 3 3 3 3 3 3 4 4 3 3
9 9 8 8 8 7 9 9 10 10 10 11 12 13 13 12 10 11 13 12 12 12 12 12 12 11 10 9 9 8 7 7 6 5 5 5 4 5 4 4 4 3 4 3 3 3 3 3 3 3 3 3 3 3
8 9 8 7 8 8 10 11 11 11 12 12 12 13 12 10 13 13 13 13 12 11 11 11 11 11 10 9 8 8 7 6 6 5 5 4 4 4 4 4 4 4 4 3 4 4 4 4 4 3 3 3 3 2
4 9 8 9 10 10 12 12 11 12 12 13 12 11 10 12 12 14 14 13 13 12 12 12 11 10 10 9 8 8 7 7 6 5 5 4 4 4 4 4 4 4 4 4 4 4 4 4 3 3 3 3 3 2
5 9 9 10 10 10 10 10 10 11 13 13 13 12 12 13 14 15 14 14 14 13 12 12 11 11 10 9 8 8 7 7 6 6 5 4 4 4 4 4 3 3 4 4 4 3 3 3 3 3 3 2 2 2
8 8 10 10 9 10 12 12 13 13 13 11 11 12 13 14 15 14 14 14 13 13 12 11 10 10 9 9 8 8 7 7 6 6 5 4 4 4 4 4 3 3 3 3 3 3 3 3 3 3 3 3 2 2
8 9 9 10 10 11 11 12 13 13 13 12 13 13 13 13 14 14 14 13 13 13 12 11 10 10 9 8 8 8 7 7 6 6 5 5 4 4 4 4 3 3 3 3 4 4 4 3 3 3 3 2 2 2
9 10 10 10 11 12 13 14 14 14 13 13 13 13 13 14 14 13 13 13 13 13 12 12 11 11 10 10 9 8 7 7 7 6 6 6 5 5 4 4 4 4 4 4 4 4 3 3 3 3 3 2 2 2
10 10 9 11 12 13 14 14 14 13 12 12 12 11 12 13 13 14 14 13 13 13 12 12 11 11 11 10 10 9 8 8 7 7 6 6 6 5 5 4 4 4 4 4 4 4 4 3 3 3 3 3 2 2
9 10 11 12 12 13 13 12 12 12 11 11 11 11 11 12 12 13 13 13 13 12 12 12 12 12 12 11 10 10 9 9 8 8 7 6 6 5 5 5 5 5 4 4 4 4 4 4 4 3 3 3 3 2
9 10 10 12 13 12 11 12 12 12 11 11 10 10 10 11 12 11 12 12 12 12 12 12 12 12 11 11 10 10 10 9 8 8 7 6 6 6 5 5 5 5 5 5 5 5 5 4 4 4 3 3 3 2